DW6352 Weather Reports


Display with metric or nautical units.
time (UTC)temp
F
wind
direction
speed
MPH
gust
MPH
rain 1hr
in
rain 24hr
in
rain mn
in
humidity
%
barometer
mb
20260507023007 42 269 1.0 7.0 0.00 0.00 0.00 51 1014.8
20260507021506 42 263 3.0 6.0 0.00 0.00 0.00 50 1014.8
20260507020006 42 257 1.0 4.0 0.00 0.00 0.00 50 1014.7
20260507014509 42 284 2.0 5.0 0.00 0.00 0.00 49 1014.6
20260507013005 42 297 2.0 7.0 0.00 0.00 0.00 49 1014.5
20260507011505 42 290 2.0 7.0 0.00 0.00 0.00 49 1014.6
20260507010010 42 246 1.0 8.0 0.00 0.00 0.00 49 1014.7
20260507004504 42 303 3.0 8.0 0.00 0.00 0.00 48 1014.7
20260507003008 43 261 4.0 10.0 0.00 0.00 0.00 48 1014.8
20260507001503 43 329 3.0 12.0 0.00 0.00 0.00 48 1014.9
20260507000003 43 257 6.0 11.0 0.00 0.00 0.00 48 1014.9
20260506234502 43 294 5.0 13.0 0.00 0.00 0.00 47 1015.0
20260506233003 43 273 6.0 14.0 0.00 0.00 0.00 47 1015.0
20260506231505 43 280 5.0 12.0 0.00 0.00 0.00 47 1015.0
20260506230001 43 248 4.0 10.0 0.00 0.00 0.00 49 1015.2
20260506224501 43 278 4.0 11.0 0.00 0.00 0.00 48 1015.2
20260506223000 43 255 5.0 13.0 0.00 0.00 0.00 47 1015.2
20260506221608 43 211 6.0 12.0 0.00 0.00 0.00 49 1015.3
20260506220058 43 327 6.0 12.0 0.00 0.00 0.00 49 1015.4
20260506214604 42 306 6.0 13.0 0.00 0.00 0.00 49 1015.5
20260506213057 42 289 6.0 13.0 0.00 0.00 0.00 49 1015.6
20260506211556 42 307 6.0 15.0 0.00 0.00 0.00 50 1015.7
20260506210055 42 290 7.0 13.0 0.00 0.00 0.00 51 1015.7
20260506204559 42 253 9.0 15.0 0.00 0.00 0.00 50 1015.7
20260506203054 42 330 6.0 13.0 0.00 0.00 0.00 50 1015.8
20260506201554 42 237 8.0 14.0 0.00 0.00 0.00 50 1015.8
20260506200052 42 261 5.0 10.0 0.00 0.00 0.00 51 1015.8
20260506194551 41 284 4.0 17.0 0.00 0.00 0.00 51 1015.9
20260506193050 41 261 4.0 11.0 0.00 0.00 0.00 53 1015.9
20260506191549 41 290 5.0 12.0 0.00 0.00 0.00 52 1016.1
20260506190048 41 161 6.0 10.0 0.00 0.00 0.00 52 1016.0
20260506184547 41 264 6.0 11.0 0.00 0.00 0.00 51 1016.0
20260506183047 40 267 7.0 15.0 0.00 0.00 0.00 51 1016.1
20260506181546 40 277 10.0 14.0 0.00 0.00 0.00 53 1016.2
20260506180044 40 291 4.0 14.0 0.00 0.00 0.00 54 1016.3
20260506174554 40 306 5.0 12.0 0.00 0.00 0.00 54 1016.4
20260506173043 39 250 5.0 17.0 0.00 0.00 0.00 54 1016.4
20260506171541 40 259 6.0 16.0 0.00 0.00 0.00 53 1016.4
20260506170045 39 292 7.0 13.0 0.00 0.00 0.00 55 1016.6
20260506164539 39 298 11.0 17.0 0.00 0.00 0.00 55 1016.6
20260506163042 38 242 8.0 12.0 0.00 0.00 0.00 54 1016.6
20260506161538 38 327 8.0 14.0 0.00 0.00 0.00 54 1016.6
20260506160030 38 323 10.0 15.0 0.00 0.00 0.00 56 1016.6
20260506154527 38 309 8.0 17.0 0.00 0.00 0.00 57 1016.5
20260506153034 37 286 7.0 15.0 0.00 0.00 0.00 57 1016.5
20260506151520 37 317 10.0 17.0 0.00 0.00 0.00 58 1016.4
20260506150018 37 288 10.0 17.0 0.00 0.00 0.00 57 1016.4
20260506144529 37 284 7.0 14.0 0.00 0.00 0.00 58 1016.3
20260506143014 37 262 7.0 13.0 0.00 0.00 0.00 59 1016.3
20260506141511 37 296 7.0 12.0 0.00 0.00 0.00 60 1016.3
20260506140008 37 281 4.0 15.0 0.00 0.00 0.00 60 1016.1
20260506134506 37 300 7.0 13.0 0.00 0.00 0.00 60 1015.8
20260506133003 36 288 9.0 13.0 0.00 0.00 0.00 61 1015.7
20260506131600 36 311 5.0 14.0 0.00 0.00 0.00 61 1015.6
20260506130138 36 295 4.0 11.0 0.00 0.00 0.00 62 1015.5
20260506124555 36 285 5.0 11.0 0.00 0.00 0.00 63 1015.5
20260506123051 36 247 5.0 11.0 0.00 0.00 0.00 62 1015.4
20260506121553 36 305 6.0 12.0 0.00 0.00 0.00 62 1015.1
20260506120045 36 297 5.0 11.0 0.00 0.00 0.00 62 1015.0
20260506114543 36 257 3.0 8.0 0.00 0.00 0.00 62 1014.9
20260506113049 36 297 3.0 8.0 0.00 0.00 0.00 62 1014.8
20260506111538 36 311 3.0 7.0 0.00 0.00 0.00 62 1014.8
20260506110041 36 269 3.0 7.0 0.00 0.00 0.00 62 1014.6
20260506104533 36 281 2.0 6.0 0.00 0.00 0.00 61 1014.3
20260506103033 36 274 3.0 7.0 0.00 0.00 0.00 61 1014.2
20260506101535 36 293 3.0 9.0 0.00 0.00 0.00 60 1014.2
20260506100036 36 263 2.0 6.0 0.00 0.00 0.00 60 1014.2
20260506094532 36 302 3.0 8.0 0.00 0.00 0.00 60 1014.3
20260506093034 36 292 3.0 9.0 0.00 0.00 0.00 60 1014.2
20260506091528 36 303 5.0 10.0 0.00 0.00 0.00 60 1014.0
20260506090036 36 303 5.0 9.0 0.00 0.00 0.00 61 1013.9
20260506084532 36 317 4.0 11.0 0.00 0.00 0.00 62 1013.9
20260506083030 36 306 4.0 9.0 0.00 0.00 0.00 63 1014.0
20260506081522 35 277 6.0 11.0 0.00 0.00 0.00 64 1013.8
20260506073020 34 302 2.0 6.0 0.00 0.00 0.00 66 1013.7
20260506071519 33 296 2.0 6.0 0.00 0.00 0.00 67 1013.7
20260506061511 31 321 0.0 4.0 0.00 0.00 0.00 65 1013.7
20260506044556 36 321 1.0 6.0 0.00 0.00 0.00 61 1013.5
20260506043057 36 343 2.0 5.0 0.00 0.00 0.00 61 1013.4
20260506041551 37 351 2.0 9.0 0.00 0.00 0.00 60 1013.2
20260506040051 37 327 3.0 9.0 0.00 0.00 0.00 60 1013.2
20260506034609 38 330 3.0 10.0 0.00 0.00 0.00 60 1012.9
20260506033049 38 321 4.0 10.0 0.00 0.00 0.00 59 1012.9
20260506031552 39 351 3.0 6.0 0.00 0.00 0.00 58 1012.9
20260506030047 39 16 2.0 9.0 0.00 0.00 0.00 57 1012.8
20260506024551 40 347 5.0 11.0 0.00 0.00 0.00 55 1012.7
20260506023054 40 351 5.0 12.0 0.00 0.00 0.00 54 1012.5